When you browse on this site, cookies collect data to enhance your experience and personalize the content and advertising you see.
Visit our Privacy Policy to learn more. By continuing to use the site, you agree to this use of cookies and data.
  • In Österreich
  • Länderverzeichnis
  • Für 7 Tage
  • Wassertemperatur
  • Satellitenkarten
  • Wetterkarte
  • News
  • Widgets
  • user-avatar
    Anmelden

    Stündliche Wetter Nayda

    Heute, 16 Juli, Dienstag

    Zeit Temperatur Niederschläge Wind Luftdruck Luftfeuchtigkeit
    00:00 +13°C° 0 mm 1 m/S 746 mmHg 92%
    01:00 +13°C° 0 mm 1 m/S 746 mmHg 93%
    02:00 +12°C° 0 mm 1 m/S 747 mmHg 92%
    03:00 +12°C° 0 mm 1 m/S 747 mmHg 92%
    04:00 +12°C° 0 mm 1 m/S 746 mmHg 92%
    05:00 +12°C° 0 mm 1 m/S 746 mmHg 92%
    06:00 +14°C° 0 mm 1 m/S 746 mmHg 85%
    07:00 +16°C° 0 mm 1 m/S 746 mmHg 79%
    08:00 +18°C° 0 mm 2 m/S 746 mmHg 73%
    09:00 +20°C° 0.1 mm 2 m/S 746 mmHg 66%
    10:00 +21°C° 0.1 mm 2 m/S 746 mmHg 59%
    11:00 +24°C° 0.1 mm 2 m/S 745 mmHg 53%
    12:00 +24°C° 0.1 mm 2 m/S 745 mmHg 52%
    13:00 +24°C° 0.1 mm 2 m/S 745 mmHg 51%
    14:00 +25°C° 0.1 mm 3 m/S 744 mmHg 50%
    15:00 +24°C° 0.2 mm 2 m/S 744 mmHg 56%
    16:00 +23°C° 0.2 mm 2 m/S 744 mmHg 62%
    17:00 +23°C° 0.2 mm 2 m/S 744 mmHg 68%
    18:00 +20°C° 0.3 mm 2 m/S 744 mmHg 74%
    19:00 +19°C° 0.3 mm 2 m/S 744 mmHg 81%
    20:00 +17°C° 0.3 mm 2 m/S 744 mmHg 87%
    21:00 +16°C° 0.1 mm 2 m/S 744 mmHg 89%
    22:00 +16°C° 0.1 mm 3 m/S 744 mmHg 91%
    23:00 +14°C° 0.1 mm 3 m/S 744 mmHg 93%

    Morgen, 17 Juli, Mittwoch

    Zeit Temperatur Niederschläge Wind Luftdruck Luftfeuchtigkeit
    00:00 +14°C° 0.2 mm 3 m/S 744 mmHg 94%
    01:00 +13°C° 0.2 mm 3 m/S 744 mmHg 94%
    02:00 +12°C° 0.2 mm 3 m/S 744 mmHg 94%
    03:00 +12°C° 0 mm 3 m/S 744 mmHg 95%
    04:00 +11°C° 0 mm 3 m/S 744 mmHg 96%
    05:00 +10°C° 0 mm 3 m/S 743 mmHg 97%
    06:00 +11°C° 0 mm 3 m/S 743 mmHg 95%
    07:00 +12°C° 0 mm 3 m/S 743 mmHg 92%
    08:00 +14°C° 0 mm 3 m/S 744 mmHg 89%
    09:00 +16°C° 0.1 mm 3 m/S 743 mmHg 82%
    10:00 +17°C° 0.1 mm 3 m/S 743 mmHg 75%
    11:00 +19°C° 0.1 mm 3 m/S 743 mmHg 68%
    12:00 +19°C° 0.5 mm 4 m/S 743 mmHg 67%
    13:00 +19°C° 0.5 mm 4 m/S 743 mmHg 66%
    14:00 +19°C° 0.5 mm 4 m/S 743 mmHg 65%
    15:00 +19°C° 0.1 mm 4 m/S 742 mmHg 65%
    16:00 +19°C° 0.1 mm 3 m/S 742 mmHg 65%
    17:00 +19°C° 0.1 mm 3 m/S 742 mmHg 65%
    18:00 +17°C° 0.3 mm 2 m/S 742 mmHg 73%
    19:00 +16°C° 0.3 mm 2 m/S 742 mmHg 82%
    20:00 +14°C° 0.3 mm 1 m/S 742 mmHg 90%
    21:00 +14°C° 0 mm 1 m/S 742 mmHg 92%
    22:00 +13°C° 0 mm 1 m/S 743 mmHg 93%
    23:00 +12°C° 0 mm 1 m/S 743 mmHg 95%

    übermorgen, 18 Juli, Donnerstag

    Zeit Temperatur Niederschläge Wind Luftdruck Luftfeuchtigkeit
    00:00 +12°C° 0 mm 2 m/S 743 mmHg 96%
    01:00 +12°C° 0 mm 2 m/S 743 mmHg 96%
    02:00 +10°C° 0 mm 2 m/S 743 mmHg 97%
    03:00 +10°C° 0 mm 2 m/S 743 mmHg 97%
    04:00 +10°C° 0 mm 2 m/S 743 mmHg 98%
    05:00 +10°C° 0 mm 2 m/S 743 mmHg 98%
    06:00 +11°C° 0 mm 3 m/S 743 mmHg 96%
    07:00 +12°C° 0 mm 3 m/S 744 mmHg 94%
    08:00 +13°C° 0 mm 4 m/S 744 mmHg 93%
    09:00 +14°C° 0 mm 4 m/S 744 mmHg 89%
    10:00 +15°C° 0 mm 4 m/S 744 mmHg 86%
    11:00 +15°C° 0 mm 4 m/S 744 mmHg 82%
    12:00 +17°C° 0.1 mm 4 m/S 744 mmHg 80%
    13:00 +18°C° 0.1 mm 4 m/S 744 mmHg 77%
    14:00 +19°C° 0.1 mm 4 m/S 744 mmHg 75%
    15:00 +19°C° 0.5 mm 4 m/S 745 mmHg 77%
    16:00 +19°C° 0.5 mm 4 m/S 745 mmHg 80%
    17:00 +19°C° 0.5 mm 3 m/S 745 mmHg 83%
    18:00 +18°C° 0.3 mm 3 m/S 745 mmHg 87%
    19:00 +17°C° 0.3 mm 2 m/S 745 mmHg 90%
    20:00 +17°C° 0.3 mm 2 m/S 745 mmHg 94%
    21:00 +16°C° 0 mm 2 m/S 745 mmHg 95%
    22:00 +15°C° 0 mm 2 m/S 746 mmHg 96%
    23:00 +15°C° 0 mm 2 m/S 746 mmHg 97%

    19 Juli, Freitag

    Zeit Temperatur Niederschläge Wind Luftdruck Luftfeuchtigkeit
    00:00 +14°C° 0 mm 2 m/S 746 mmHg 97%
    01:00 +14°C° 0 mm 2 m/S 746 mmHg 97%
    02:00 +14°C° 0 mm 2 m/S 747 mmHg 97%
    03:00 +13°C° 0 mm 2 m/S 747 mmHg 97%
    04:00 +13°C° 0 mm 2 m/S 747 mmHg 97%
    05:00 +13°C° 0 mm 2 m/S 747 mmHg 97%
    06:00 +13°C° 0 mm 3 m/S 747 mmHg 91%
    07:00 +16°C° 0 mm 3 m/S 748 mmHg 86%
    08:00 +18°C° 0 mm 3 m/S 748 mmHg 81%
    09:00 +19°C° 0 mm 3 m/S 748 mmHg 71%
    10:00 +21°C° 0 mm 3 m/S 748 mmHg 62%
    11:00 +23°C° 0 mm 4 m/S 748 mmHg 52%
    12:00 +23°C° 0 mm 4 m/S 748 mmHg 51%
    13:00 +25°C° 0 mm 4 m/S 748 mmHg 50%
    14:00 +25°C° 0 mm 4 m/S 748 mmHg 49%
    15:00 +25°C° 0.1 mm 3 m/S 748 mmHg 53%
    16:00 +25°C° 0.1 mm 3 m/S 748 mmHg 57%
    17:00 +24°C° 0.1 mm 3 m/S 748 mmHg 61%
    18:00 +21°C° 0.1 mm 2 m/S 749 mmHg 69%
    19:00 +20°C° 0.1 mm 2 m/S 749 mmHg 77%
    20:00 +19°C° 0.1 mm 1 m/S 749 mmHg 85%
    21:00 +18°C° 0 mm 1 m/S 749 mmHg 88%
    22:00 +16°C° 0 mm 1 m/S 750 mmHg 90%
    23:00 +16°C° 0 mm 1 m/S 750 mmHg 92%

    20 Juli, Samstag

    Zeit Temperatur Niederschläge Wind Luftdruck Luftfeuchtigkeit
    00:00 +15°C° 0 mm 1 m/S 750 mmHg 92%
    01:00 +15°C° 0 mm 1 m/S 750 mmHg 92%
    02:00 +14°C° 0 mm 1 m/S 750 mmHg 93%
    03:00 +14°C° 0 mm 1 m/S 750 mmHg 93%
    04:00 +14°C° 0 mm 1 m/S 750 mmHg 93%
    05:00 +14°C° 0 mm 1 m/S 751 mmHg 93%
    06:00 +16°C° 0 mm 1 m/S 751 mmHg 85%
    07:00 +19°C° 0 mm 1 m/S 751 mmHg 77%
    08:00 +22°C° 0 mm 1 m/S 751 mmHg 69%
    09:00 +23°C° 0 mm 1 m/S 751 mmHg 63%
    10:00 +24°C° 0 mm 2 m/S 751 mmHg 56%
    11:00 +26°C° 0 mm 2 m/S 751 mmHg 49%
    12:00 +26°C° 0 mm 2 m/S 751 mmHg 47%
    13:00 +27°C° 0 mm 2 m/S 751 mmHg 45%
    14:00 +27°C° 0 mm 2 m/S 751 mmHg 44%
    15:00 +27°C° 0 mm 2 m/S 751 mmHg 45%
    16:00 +27°C° 0 mm 2 m/S 751 mmHg 47%
    17:00 +26°C° 0 mm 2 m/S 751 mmHg 48%
    18:00 +24°C° 0 mm 1 m/S 751 mmHg 57%
    19:00 +22°C° 0 mm 1 m/S 751 mmHg 65%
    20:00 +20°C° 0 mm 1 m/S 751 mmHg 73%
    21:00 +19°C° 0 mm 1 m/S 752 mmHg 76%
    22:00 +19°C° 0 mm 1 m/S 752 mmHg 78%
    23:00 +18°C° 0 mm 1 m/S 752 mmHg 81%

    21 Juli, Sonntag

    Zeit Temperatur Niederschläge Wind Luftdruck Luftfeuchtigkeit
    00:00 +16°C° 0 mm 1 m/S 752 mmHg 81%
    01:00 +16°C° 0 mm 1 m/S 752 mmHg 82%
    02:00 +14°C° 0 mm 0 m/S 752 mmHg 82%
    03:00 +15°C° 0 mm 1 m/S 752 mmHg 82%
    04:00 +15°C° 0 mm 1 m/S 752 mmHg 82%
    05:00 +15°C° 0 mm 1 m/S 753 mmHg 82%
    06:00 +18°C° 0 mm 1 m/S 753 mmHg 76%
    07:00 +21°C° 0 mm 1 m/S 753 mmHg 69%
    08:00 +23°C° 0 mm 1 m/S 753 mmHg 62%
    09:00 +24°C° 0 mm 1 m/S 753 mmHg 58%
    10:00 +26°C° 0 mm 1 m/S 753 mmHg 53%
    11:00 +27°C° 0 mm 1 m/S 753 mmHg 49%
    12:00 +28°C° 0 mm 1 m/S 753 mmHg 47%
    13:00 +28°C° 0 mm 1 m/S 753 mmHg 45%
    14:00 +29°C° 0 mm 1 m/S 753 mmHg 44%
    15:00 +28°C° 0 mm 2 m/S 753 mmHg 48%
    16:00 +27°C° 0 mm 2 m/S 753 mmHg 52%
    17:00 +27°C° 0 mm 2 m/S 753 mmHg 56%
    18:00 +25°C° 0.1 mm 2 m/S 753 mmHg 65%
    19:00 +23°C° 0.1 mm 2 m/S 753 mmHg 73%
    20:00 +21°C° 0.1 mm 1 m/S 753 mmHg 82%
    21:00 +20°C° 0 mm 1 m/S 753 mmHg 83%
    22:00 +19°C° 0 mm 1 m/S 754 mmHg 83%
    23:00 +18°C° 0 mm 1 m/S 754 mmHg 84%
    Mehr zeigen